Regional Weather Roundup
Issued by NWS Upton, NY

Current Version | Previous Version | Graphics & Text | Print | Product List | Glossary Off
Versions: 1 2 3 4 5 6 7 8 9 10 11 12 13 14 15 16 17 18 19 20 21 22 23 24 25 26 27

000
ASUS41 KOKX 230305
RWROKX

REGIONAL WEATHER ROUNDUP
NATIONAL WEATHER SERVICE NEW YORK NY
1100 PM EDT FRI JUL 22 2016

NOTE: "FAIR" INDICATES FEW OR NO CLOUDS BELOW 12,000 FEET WITH NO
SIGNIFICANT WEATHER AND/OR OBSTRUCTIONS TO VISIBILITY.

NYZ071-072-176-178-NJZ106-104-230400-
NEW YORK CITY METRO AREA

CITY           SKY/WX    TMP DP  RH WIND       PRES   REMARKS
Central Park   CLEAR     85  70  60 VRB5G17   29.83S
LaGuardia APRT PTCLDY    88  71  57 SW8       29.79F HX  94
Kennedy INTL   PTCLDY    80  69  69 S15       29.82F
Newark/Liberty PTCLDY    86  70  58 SW14      29.80S HX  90
BRNX BOT. GARD   N/A     86  68  54 SW3       29.83R
Wall St Helipt CLEAR     84  72  65 W8        29.81S
Teterboro      CLEAR     87  68  52 SW10      29.78F HX  90
$$

NYZ177-179-078>081-230400-
LONG ISLAND NEW YORK

CITY           SKY/WX    TMP DP  RH WIND       PRES   REMARKS
FARMINGDALE    CLEAR     80  69  69 SW8       29.82S
ISLIP          PTCLDY    79  70  74 SW12      29.81S
SHIRLEY        CLEAR     79  71  76 SW9       29.82S
RIVERHEAD      NOT AVBL
WESTHAMPTON    CLEAR     75  70  84 SW15G22   29.83F
SOUTHAMPTON      N/A     73  72  94 W12       29.78S
BRIDGEHAMPTON    N/A     75  72  88 S6        29.81S
EAST HAMPTON   FAIR      75  71  87 SW12G21   29.81S
MONTAUK POINT    N/A     77  72  84 SW12G25   29.81F
$$

NYZ052-065-067-230400-
HUDSON VALLEY

CITY           SKY/WX    TMP DP  RH WIND       PRES   REMARKS
WHITE PLAINS   PTCLDY    86  66  51 VRB5      29.81S
NEWBURGH       PTCLDY    81  70  69 W7        29.82S
MONTGOMERY     MOCLDY    76  71  85 CALM      29.81R
POUGHKEEPSIE   PTCLDY    76  72  87 SE3       29.78R
ALBANY         CLEAR     79  63  57 SW7       29.77F
$$

NJZ001-105-106-008-010-013-015-019>022-104-230400-
NEW JERSEY

CITY           SKY/WX    TMP DP  RH WIND       PRES   REMARKS
NEWARK/LIBERTY PTCLDY    86  70  58 SW14      29.80S HX  90
TETERBORO      CLEAR     87  68  52 SW10      29.78F HX  90
CALDWELL       CLEAR     85  68  56 VRB6      29.80S
MORRISTOWN     CLEAR     82  64  54 SW8       29.81S
SOMERVILLE     CLEAR     83  68  60 CALM      29.81R
SUSSEX         CLEAR     79  68  69 SW5       29.83S
ANDOVER          N/A     76  66  71 CALM      29.84S
TRENTON        CLEAR     84  71  65 SW8       29.84S
MILLVILLE      CLEAR     82  74  76 SW6       29.89S
ATLANTIC CITY  CLEAR     82  73  74 SW8       29.88S
WRIGHTSTOWN    CLEAR     81  70  68 SW10      29.83S
TOMS RIVER     CLEAR     80  69  69 SW10      29.86S
BELMAR         CLEAR     82  69  64 SW12      29.86S
$$

PAZ047>061-062-071-230400-
EASTERN PENNSYLVANIA

CITY           SKY/WX    TMP DP  RH WIND       PRES   REMARKS
PHILADELPHIA   PTCLDY    83  71  67 SW12      29.87S
ALLENTOWN      CLEAR     83  66  56 SW8       29.85R
SCRANTON       CLEAR     81  67  62 SW5       29.88R
$$

CTZ002-004>006-009-010-012-RIZ004-006-007-MAZ004-011-015-230400-
SOUTHERN NEW ENGLAND
 IN CT

CITY           SKY/WX    TMP DP  RH WIND       PRES   REMARKS
BRADLEY INTL   CLOUDY    75  71  87 NW3       29.77R
HARTFORD       CLOUDY    77  69  76 W3        29.76F
DANBURY        PTCLDY    82  67  60 SW6       29.81S
WTRBRY/OXFORD    N/A     75  70  83 SE3       29.83R
BRIDGEPORT     CLEAR     80  71  74 W5        29.78S
MERIDEN        CLOUDY    78  74  87 CALM      29.79R
NEW HAVEN      MOCLDY    78  70  76 SW5       29.79S
CHESTER        FAIR      79  72  78 VRB5      29.82S
GROTON         PTCLDY    77  71  82 SW8       29.80R
WILLIMANTIC    NOT AVBL

 IN RI

CITY           SKY/WX    TMP DP  RH WIND       PRES   REMARKS
PROVIDENCE     TSTM      75  70  84 SW16G25   29.78S
BLOCK ISLAND     N/A     73  71  93 MISG        N/A
WESTERLY       CLOUDY    77  69  76 SW7       29.81R

 IN MA

CITY           SKY/WX    TMP DP  RH WIND       PRES   REMARKS
BOSTON         PTCLDY    81  71  71 SW15      29.74F
WORCESTER      CLEAR     73  70  90 SW8       29.81S
WESTFIELD      CLEAR     74  68  81 S5        29.77S
PROVINCETOWN   CLOUDY    73  66  78 SW18G24   29.77S
NANTUCKET      MOCLDY    71  69  93 SW13      29.82F FOG
$$

ANZ330-335-338-340-345-350-353-355-230400-
COASTAL MARINE OBSERVATIONS


STATION/POSITION TIME  SKY/WX   TEMP    WIND        PRES    VSBY  WAVE
                                AIR SEA DIR/SP/G                  HT/PER
                 (UTC)          (F)     (DEG/KT/KT) (MB)    (MI)  (FT/S)
NY HARB ENTRANCE 0150            76 72  210/ 16/ 17 1009.6          5/ 6
20S FIRE ISLAND  0150            77 74  220/ 17/ 21 1009.9          5/ 6
GREAT SOUTH BAY  0230            78 80  250/ 17/ 21   N/A
23 SSW MONTAUK P 0150            76 72  220/ 21/ 27 1009.8          6/ 7
15 E BARNEGAT LI NOT AVBL
HUDSON CANYON    0150            78 76              1011.2          5/ 6
KINGS POINT      0200            86 74                N/A
EXECUTION ROCKS  0200            79     210/ 10/ 14   N/A
CENTRAL LI SOUND 0230            78 72  220/ 16/ 17   N/A           2/ 4
EASTERN LI SOUND 0200            74 69  210/ 16/ 19   N/A
ROBBINS REEF     0206            87     230/ 12/ 15   N/A
$$


>>>>>>>>>>>>>>>>>>>>>>>>>>>> KEY <<<<<<<<<<<<<<<<<<<<<<<<<<<
>                                                          <
>     SKY/WX - SKY CONDITION/PRESENT WEATHER               <
>     TMP    - TEMPERATURE IN FAHRENHEIT                   <
>     DP     - DEWPOINT IN FAHRENHEIT                      <
>     RH     - RELATIVE HUMIDITY IN PERCENT                <
>     WIND   - DIRECTION AND SPEED IN MPH                  <
>     PRES   - MEAN SEA LEVEL PRESSURE IN INCHES OF HG     <
>     WCI    - WIND CHILL INDEX                            <
>     VSB    - VISIBILITY IN MILES                         <
>     HX     - HEAT INDEX                                  <
>     TC     - TEMPERATURE IN CELSIUS                      <
>     VRB    - VARIABLE WIND DIRECTION                     <
>                                                          <
>>>>>>>>>>>>>>>>>>>>>>>>>>>> KEY <<<<<<<<<<<<<<<<<<<<<<<<<<<






USA.gov is the U.S. government's official web portal to all federal, state and local government web resources and services.